Content
SEND FEEDBACK

Daily
Averages
Monthly
Summary
United States of America

POWNAL, VERMONT


Home > North America > United States > Vermont
Elevation: 1260 feet     Latitude: 42 47N     Longitude: 073 13W

WEATHER
 
SELECT A DAY
Number of Records: 200,762;   Date Range: 10/28/95 - 11/23/14
 
SHARE

PRINT THIS DATA

[ ← Previous Day ]
WEATHER ALMANAC - JANUARY 23, 2013
[ Next Day → ]
[ °C ]   °F
Weather ElementAverageHighLow
Temperature4.8 °F8.6 °F (12:39 am) (11:52 pm)
Dewpoint-11.1 °F-5.1 °F (12:52 am)-13 °F (4:52 am)
Humidity48.3 %60 % (11:52 pm)38 % (1:52 pm)
Barometer30.14 in30.18 in (9:52 am)30.05 in (12:39 am)
Wind Speed11.4 mph17.3 mph (1:52 pm)
Wind Gust27.6 mph (1:52 pm)
Weather ElementAverage
Visibility10 mi
Wind DirectionWSW (245.7 °)

Weather ElementTotal
Precipitation---
Heating Degree Days60.7 (Base 65)
Averaged from 23 records on January 23, 2013
WEATHER CONDITIONS BREAKOUT
WIND DIRECTION BREAKOUT
WEATHER BY HOUR - JANUARY 23, 2013
[ °C ]   °F
Local TimeTemperatureDewpointHumidityBarometerVisibilityWind DirectionWind SpeedGust SpeedPrecipitationEventsConditions
12:39 AM8.6 °F-5.8 °F52 %30.05 in9.0 miWest (260°)11.5 mph20.7 mphOvercast
12:52 AM7.0 °F-5.1 °F58 %30.09 in10.0 miWest (260°)12.7 mphMostly Cloudy
2:52 AM5.0 °F-11.9 °F46 %30.11 in10.0 miWest (280°)11.5 mph19.6 mphClear
3:52 AM3.9 °F-11.0 °F50 %30.12 in10.0 miWest (260°)11.5 mphClear
4:52 AM3.0 °F-13.0 °F47 %30.13 in10.0 miWest (260°)12.7 mph18.4 mphClear
5:52 AM3.0 °F-13.0 °F47 %30.14 in10.0 miWSW (250°)12.7 mphScattered Clouds
6:52 AM1.9 °F-11.9 °F52 %30.15 in10.0 miWSW (250°)11.5 mphPartly Cloudy
7:52 AM3.0 °F-11.0 °F52 %30.16 in10.0 miWest (260°)11.5 mphMostly Cloudy
8:52 AM3.9 °F-11.0 °F50 %30.17 in10.0 miWest (280°)13.8 mph20.7 mphOvercast
9:52 AM5.0 °F-9.9 °F50 %30.18 in10.0 miWest (270°)15.0 mph21.9 mphScattered Clouds
10:52 AM7.0 °F-9.0 °F48 %30.17 in10.0 miWest (270°)15.0 mph23.0 mphPartly Cloudy
11:52 AM8.1 °F-9.0 °F46 %30.15 in10.0 miWest (280°)13.8 mph21.9 mphOvercast
12:52 PM8.1 °F-11.0 °F42 %30.13 in10.0 miNW (310°)11.5 mph23.0 mphPartly Cloudy
1:52 PM8.1 °F-13.0 °F38 %30.12 in10.0 miWest (280°)17.3 mph27.6 mphClear
2:52 PM8.1 °F-13.0 °F38 %30.13 in10.0 miWest (270°)11.5 mph19.6 mphClear
4:52 PM6.1 °F-13.0 °F41 %30.14 in10.0 miWest (270°)12.7 mph21.9 mphClear
5:52 PM5.0 °F-11.9 °F46 %30.15 in10.0 miWest (260°)13.8 mph23.0 mphClear
6:52 PM3.9 °F-11.9 °F48 %30.17 in10.0 miWest (260°)13.8 mph20.7 mphClear
7:52 PM3.9 °F-11.9 °F48 %30.16 in10.0 miWest (270°)10.4 mphClear
8:52 PM3.0 °F-11.9 °F50 %30.16 in10.0 miWest (270°)10.4 mphClear
9:52 PM3.0 °F-13.0 °F47 %30.16 in10.0 miWest (280°)8.1 mphClear
10:52 PM1.0 °F-11.9 °F55 %30.17 in10.0 miCalmClear
11:52 PM0.0 °F-11.0 °F60 %30.17 in10.0 miCalmClear
Hourly data recorded from KAQW, located miles away from Pownal, Vermont







STORIES FROM OUR PARTNERS